Content
SEND FEEDBACK

Daily
Averages
Monthly
Summary
Canada

QUEBEC CITY, QUEBEC


Home > North America > Canada > Quebec
Elevation: 72 meters     Latitude: 46 48N     Longitude: 071 23W

WEATHER
 
SELECT A DAY
Number of Records: 194,955;   Date Range: 6/30/96 - 9/28/14
 
SHARE

PRINT THIS DATA

[ ← Previous Day ]
WEATHER ALMANAC - 25 FEBRUARY, 2013
[ Next Day → ]
[ °F ]   °C
Weather ElementAverageHighLow
Temperature-0.9 °C2 °C (1:13 pm)-2.2 °C (4:00 am)
Dewpoint-6.1 °C-2.2 °C (4:00 pm) (7:00 pm)
Humidity79 %89 % (4:00 am)70 % (1:00 pm)
Wind Speed4.7 km/h13 km/h (10:00 pm)
Weather ElementAverage
Visibility21.6 km
Wind DirectionESE (126.2 °)

Weather ElementTotal
Precipitation---
Heating Degree Days18.4 (Base 18.3)
Averaged from 37 records on 25 February, 2013
WEATHER CONDITIONS BREAKOUT
WIND DIRECTION BREAKOUT
WEATHER BY HOUR - 25 FEBRUARY, 2013
[ °F ]   °C
Local TimeTemperatureDewpointHumidityBarometerVisibilityWind DirectionWind SpeedGust SpeedPrecipitationEventsConditions
12:27 AM-2 °C-17.8 °C24.1 kmENE (60°)9.3 km/hSnowLight Snow Showers
1:00 AM-1.7 °C-3.3 °C86 %1015.9 hPaENE (70°)5.6 km/h
1:00 AM-2 °C-4 °C86 %1016.3 hPa12.9 kmENE (60°)11.1 km/hSnowLight Snow Showers
1:44 AM-2 °C-17.8 °C11.3 kmENE (60°)9.3 km/hSnowLight Snow
2:00 AM-2 °C-4 °C86 %1016.6 hPa11.3 kmENE (70°)5.6 km/hSnowLight Snow
3:00 AM-2 °C-4 °C86 %1016.9 hPa24.1 kmENE (70°)7.4 km/hSnowLight Snow
3:44 AM-2 °C-17.8 °C24.1 kmENE (60°)3.7 km/hOvercast
4:00 AM-2.2 °C-3.3 °C89 %1017.3 hPaENE (60°)3.7 km/h
4:00 AM-2 °C-5 °C80 %1017.6 hPa24.1 kmENE (70°)5.6 km/hOvercast
5:00 AM-2 °C-5 °C80 %1017.9 hPa24.1 kmENE (70°)3.7 km/hOvercast
6:00 AM-2 °C-5 °C80 %1018.6 hPa24.1 kmNE (50°)7.4 km/hOvercast
7:00 AM-2.2 °C-3.3 °C86 %1019 hPaNNW (340°)1.9 km/h
7:00 AM-2 °C-5 °C80 %1019.3 hPa24.1 kmCalmMostly Cloudy
8:00 AM-2 °C-5 °C80 %1019.6 hPa32.2 kmCalmOvercast
8:15 AM-2 °C-17.8 °C32.2 kmENE (70°)3.7 km/hSnowLight Snow
9:00 AM-2 °C-5 °C80 %1020.3 hPa9.7 kmCalmSnowLight Snow
10:00 AM-1.1 °C-2.8 °C83 %1020.3 hPaEast (90°)3.7 km/h
10:00 AM-1 °C-4 °C80 %1020.7 hPa9.7 kmCalmSnowLight Snow
10:15 AM-1 °C-17.8 °C9.7 kmCalmSnowLight Snow
11:00 AM-1 °C-4 °C80 %1021 hPa16.1 kmCalmSnowLight Snow
12:00 PM-1 °C-5 °C75 %1021 hPa12.9 kmEast (80°)3.7 km/hSnowLight Snow
1:00 PM0 °C-3.3 °C70 %1020.7 hPaSSE (160°)3.7 km/h
1:00 PM1 °C-4 °C70 %1021.3 hPa16.1 kmSSE (150°)3.7 km/hSnowLight Snow
1:13 PM2 °C-17.8 °C16.1 kmCalmOvercast
2:00 PM1 °C-4 °C70 %1021.3 hPa24.1 kmWNW (290°)3.7 km/hOvercast
3:00 PM1 °C-3 °C75 %1021.3 hPa32.2 kmWSW (240°)5.6 km/hOvercast
4:00 PM0.6 °C-2.2 °C75 %1021.3 hPaWest (260°)3.7 km/h
4:00 PM1 °C-3 °C75 %1021.7 hPa32.2 kmSW (230°)7.4 km/hOvercast
5:00 PM1 °C-4 °C70 %1022.4 hPa32.2 kmSSW (200°)3.7 km/hMostly Cloudy
6:00 PM0 °C-4 °C75 %1023 hPa24.1 kmWSW (240°)7.4 km/hMostly Cloudy
7:00 PM-0.6 °C-2.2 °C83 %1023 hPaSW (230°)1.9 km/h
7:00 PM0 °C-4 °C75 %1023 hPa24.1 kmSW (220°)5.6 km/hMostly Cloudy
8:00 PM0 °C-4 °C75 %1023.4 hPa24.1 kmSSW (210°)5.6 km/hMostly Cloudy
9:00 PM0 °C-4 °C75 %1023.7 hPa24.1 kmWSW (240°)5.6 km/hMostly Cloudy
10:00 PM-0.6 °C-2.2 °C83 %1023.4 hPaWest (260°)9.3 km/h
10:00 PM0 °C-3 °C80 %1023.4 hPa24.1 kmWSW (240°)13 km/hMostly Cloudy
11:00 PM-2 °C-5 °C80 %1023.7 hPa24.1 kmSW (220°)9.3 km/hMostly Cloudy
Hourly data recorded from CYQB, located 0 kilometers away from Quebec City, Quebec







STORIES FROM OUR PARTNERS